Esther, Alberta

6:08 AM MDT on September 26, 2017 (GMT -0600)
Esther

Weather History for CWGY - September, 2013

Change the Weather History Date:

Wednesday, September 4, 2013

  Actual Average Record
Temperature  
Mean Temperature 72 °F -  
Max Temperature 91 °F - - ()
Min Temperature 54 °F - - ()
Cooling Degree Days 8    
Growing Degree Days 22 (Base 50)    
Moisture  
Dew Point 48 °F    
Average Humidity 44    
Maximum Humidity 72    
Minimum Humidity 13    
Precipitation  
Precipitation 0.00 in - - ()
Sea Level Pressure  
Sea Level Pressure 30.03 in    
Wind  
Wind Speed 9 mph ()    
Max Wind Speed 15 mph    
Max Gust Speed 17 mph    
T = Trace of Precipitation, MM = Missing Value Source: Averaged Metar Reports

Daily Weather History Graph

Daily Weather History Graph

Search for Another Location

Airport or City:

Trip Planner

Search our weather history database for the weather conditions in past years. The results will help you decide how hot, cold, wet, or windy it might be!

Date:

Astronomy

Sep. 04, 2013 Rise Set
Actual Time 6:38 AM MDT 7:59 PM MDT
Civil Twilight 6:03 AM MDT 8:34 PM MDT
Nautical Twilight 5:21 AM MDT 9:16 PM MDT
Astronomical Twilight 4:35 AM MDT 10:02 PM MDT
Moon 5:55 AM MDT (9/4) 7:16 PM MDT (9/4)
Length of Visible Light 14h 30m
Length of Day
13h 21m
Waning Crescent, 1% of the Moon is Illuminated
Sep 4
Waning Crescent
Sep 5
New
Sep 12
First Quarter
Sep 19
Full
Sep 26
Last Quarter

Hourly Weather History & Observations

Time (MDT) Temp. Dew Point Humidity Pressure Visibility Wind Dir Wind Speed Gust Speed Precip Events Conditions
12:00 AM 64 °F 49 °F 49% 30.09 in - ESE 10.4 mph - -  
12:00 AM 64.4 °F 49.5 °F 58% 30.09 in - ESE 10.4 mph - N/A   Unknown
1:00 AM 64.4 °F 49.5 °F 58% 30.10 in - SE 9.2 mph - N/A   Unknown
2:00 AM 63.1 °F 50.4 °F 63% 30.08 in - ESE 12.7 mph - N/A   Unknown
3:00 AM 61.3 °F 50.0 °F 66% 30.07 in - ESE 12.7 mph - N/A   Unknown
4:00 AM 59.0 °F 50.0 °F 72% 30.06 in - SE 12.7 mph - N/A   Unknown
5:00 AM 57.7 °F 47.7 °F 69% 30.07 in - SE 11.5 mph - N/A   Unknown
6:00 AM 57 °F 48 °F 62% 30.07 in - SE 6.9 mph - -  
6:00 AM 56.7 °F 47.7 °F 72% 30.07 in - SE 6.9 mph - N/A   Unknown
7:00 AM 58.3 °F 48.7 °F 71% 30.07 in - SE 15.0 mph - N/A   Unknown
8:00 AM 61.5 °F 49.5 °F 65% 30.08 in - SE 10.4 mph - N/A   Unknown
9:00 AM 66.7 °F 49.1 °F 53% 30.06 in - SE 13.8 mph - N/A   Unknown
10:00 AM 72.7 °F 49.6 °F 44% 30.06 in - SE 12.7 mph - N/A   Unknown
11:00 AM 78.6 °F 48.6 °F 35% 30.03 in - SSE 8.1 mph - N/A   Unknown
12:00 PM 82 °F 48 °F 21% 30.03 in - South 9.2 mph - -  
12:00 PM 82.0 °F 48.4 °F 31% 30.03 in - South 9.2 mph - N/A   Unknown
1:00 PM 85.5 °F 48.2 °F 27% 30.00 in - South 8.1 mph - N/A   Unknown
2:00 PM 87.8 °F 46.6 °F 24% 29.99 in - South 9.2 mph - N/A   Unknown
3:00 PM 89.6 °F 46.2 °F 22% 29.98 in - South 10.4 mph 17.3 mph N/A   Unknown
4:00 PM 90.0 °F 47.1 °F 23% 29.98 in - South 10.4 mph - N/A   Unknown
5:00 PM 89.4 °F 45.1 °F 21% 29.97 in - SSW 10.4 mph - N/A   Unknown
6:00 PM 89 °F 45 °F 13% 29.96 in - SW 10.4 mph - -  
6:00 PM 88.9 °F 45.0 °F 22% 29.96 in - SW 10.4 mph - N/A   Unknown
7:00 PM 84.9 °F 47.8 °F 27% 29.96 in - SW 5.8 mph - N/A   Unknown
8:00 PM 76.6 °F 50.5 °F 40% 29.96 in - SSE 9.2 mph - N/A   Unknown
9:00 PM 74.8 °F 50.4 °F 42% 29.96 in - South 12.7 mph - N/A   Unknown
10:00 PM 72.7 °F 51.1 °F 47% 29.97 in - South 11.5 mph - N/A   Unknown
11:00 PM 70.7 °F 48.2 °F 45% 29.97 in - SSW 9.2 mph - N/A   Unknown